Location: Limerick
(52.6650°N, 8.6230°W)
Time: 14:14:52
(UTC+01:00)

Envisat - Visible Passes

Search period start: 29 March 2017 00:00
Search period end: 08 April 2017 00:00
Orbit: 764 x 766 km, 98.2° (Epoch: 27 March)

Date Brightness Start Highest point End Pass type
(mag) Time Alt. Az. Time Alt. Az. Time Alt. Az.
29 Mar 3.1 21:32:03 10° SSE 21:37:09 81° WSW 21:42:17 10° NNW visible
29 Mar 5.6 23:14:21 10° WSW 23:17:00 14° W 23:19:40 10° NW visible
30 Mar 3.2 20:55:34 10° SE 21:00:30 54° ENE 21:05:28 10° N visible
30 Mar 4.9 22:35:33 10° SSW 22:39:50 27° W 22:44:08 10° NW visible
31 Mar 3.8 21:57:55 10° S 22:02:51 51° W 22:07:50 10° NNW visible
01 Apr 3.0 21:21:00 10° SSE 21:26:04 84° ENE 21:31:12 10° NNW visible
01 Apr 5.5 23:02:29 10° SW 23:05:46 17° W 23:09:05 10° NW visible
02 Apr 3.4 20:44:41 10° SE 20:49:29 45° ENE 20:54:20 10° N visible
02 Apr 4.6 22:24:08 10° SSW 22:28:40 32° W 22:33:14 10° NNW visible
03 Apr 3.4 21:46:43 10° S 21:51:45 62° WSW 21:56:49 10° NNW visible
03 Apr 5.9 23:31:01 10° W 23:31:50 10° W 23:32:40 10° WNW visible
04 Apr 3.0 21:09:59 10° SSE 21:15:01 70° ENE 21:20:07 10° N visible
04 Apr 5.3 22:50:47 10° SW 22:54:34 21° W 22:58:22 10° NW visible
05 Apr 4.3 22:12:46 10° SSW 22:17:30 39° W 22:22:17 10° NNW visible
06 Apr 3.2 21:35:35 10° S 21:40:39 76° WSW 21:45:47 10° NNW visible
06 Apr 5.7 23:18:17 10° WSW 23:20:35 13° W 23:22:53 10° WNW visible
07 Apr 3.1 20:59:01 10° SSE 21:03:59 58° ENE 21:09:00 10° N visible
07 Apr 5.0 22:39:13 10° SSW 22:43:23 25° W 22:47:34 10° NW visible
